| time (UTC) | temp F | wind direction | speed MPH | gust MPH | rain 1hr in | rain 24hr in | rain mn in | humidity % | barometer mb |
| 20260508130010 | 74 | 84 | 0.0 | 1.0 | 0.00 | 0.00 | 0.00 | 20 | 949.5 |
| 20260508124511 | 74 | 83 | 0.0 | 3.0 | 0.00 | 0.00 | 0.00 | 20 | 949.4 |
| 20260508123009 | 75 | 84 | 0.0 | 4.0 | 0.00 | 0.00 | 0.00 | 19 | 949.1 |
| 20260508121514 | 75 | 83 | 0.0 | 2.0 | 0.00 | 0.00 | 0.00 | 19 | 949.1 |
| 20260508120005 | 75 | 92 | 1.0 | 3.0 | 0.00 | 0.00 | 0.00 | 18 | 949.0 |
| 20260508114503 | 75 | 108 | 0.0 | 4.0 | 0.00 | 0.00 | 0.00 | 19 | 948.9 |
| 20260508113108 | 75 | 103 | 4.0 | 7.0 | 0.00 | 0.00 | 0.00 | 18 | 948.8 |
| 20260508111609 | 75 | 72 | 2.0 | 4.0 | 0.00 | 0.00 | 0.00 | 18 | 948.8 |
| 20260508104556 | 76 | 79 | 2.0 | 6.0 | 0.00 | 0.00 | 0.00 | 16 | 948.7 |
| 20260508103058 | 77 | 80 | 0.0 | 5.0 | 0.00 | 0.00 | 0.00 | 16 | 948.7 |
| 20260508101552 | 78 | 101 | 1.0 | 3.0 | 0.00 | 0.00 | 0.00 | 16 | 948.6 |
| 20260508100048 | 79 | 146 | 0.0 | 2.0 | 0.00 | 0.00 | 0.00 | 15 | 948.6 |
| 20260508094600 | 80 | 225 | 4.0 | 8.0 | 0.00 | 0.00 | 0.00 | 15 | 948.5 |
| 20260508093047 | 81 | 94 | 5.0 | 12.0 | 0.00 | 0.00 | 0.00 | 14 | 948.2 |
| 20260508091545 | 81 | 86 | 4.0 | 8.0 | 0.00 | 0.00 | 0.00 | 14 | 948.2 |
| 20260508090044 | 81 | 83 | 5.0 | 8.0 | 0.00 | 0.00 | 0.00 | 13 | 948.3 |
| 20260508084541 | 79 | 96 | 7.0 | 10.0 | 0.00 | 0.00 | 0.00 | 14 | 948.5 |
| 20260508083115 | 81 | 110 | 7.0 | 9.0 | 0.00 | 0.00 | 0.00 | 13 | 948.6 |
| 20260508081541 | 80 | 139 | 1.0 | 5.0 | 0.00 | 0.00 | 0.00 | 13 | 948.8 |
| 20260508080035 | 81 | 80 | 6.0 | 9.0 | 0.00 | 0.00 | 0.00 | 13 | 948.5 |
| 20260508074536 | 81 | 81 | 5.0 | 9.0 | 0.00 | 0.00 | 0.00 | 13 | 948.5 |
| 20260508073033 | 81 | 83 | 6.0 | 10.0 | 0.00 | 0.00 | 0.00 | 12 | 948.6 |
| 20260508071533 | 82 | 103 | 5.0 | 9.0 | 0.00 | 0.00 | 0.00 | 12 | 948.6 |
| 20260508070027 | 82 | 82 | 5.0 | 8.0 | 0.00 | 0.00 | 0.00 | 12 | 948.5 |
| 20260508064542 | 82 | 85 | 4.0 | 9.0 | 0.00 | 0.00 | 0.00 | 12 | 948.5 |
| 20260508063026 | 82 | 97 | 5.0 | 10.0 | 0.00 | 0.00 | 0.00 | 11 | 948.5 |
| 20260508061525 | 82 | 105 | 5.0 | 10.0 | 0.00 | 0.00 | 0.00 | 11 | 948.6 |
| 20260508060025 | 82 | 94 | 7.0 | 10.0 | 0.00 | 0.00 | 0.00 | 11 | 948.5 |
| 20260508054524 | 82 | 77 | 6.0 | 10.0 | 0.00 | 0.00 | 0.00 | 11 | 948.6 |
| 20260508053025 | 82 | 77 | 5.0 | 9.0 | 0.00 | 0.00 | 0.00 | 11 | 948.6 |
| 20260508051525 | 83 | 4.0 | 8.0 | 0.00 | 0.00 | 0.00 | 11 | 948.6 | |
| 20260508050027 | 83 | 110 | 3.0 | 7.0 | 0.00 | 0.00 | 0.00 | 11 | 948.5 |
| 20260508044522 | 85 | 83 | 4.0 | 8.0 | 0.00 | 0.00 | 0.00 | 10 | 948.6 |
| 20260508043021 | 86 | 96 | 4.0 | 6.0 | 0.00 | 0.00 | 0.00 | 10 | 948.6 |
| 20260508041520 | 84 | 106 | 3.0 | 6.0 | 0.00 | 0.00 | 0.00 | 10 | 948.6 |
| 20260508040020 | 86 | 78 | 5.0 | 8.0 | 0.00 | 0.00 | 0.00 | 10 | 948.4 |
| 20260508034519 | 86 | 82 | 4.0 | 7.0 | 0.00 | 0.00 | 0.00 | 9 | 948.2 |
| 20260508033019 | 86 | 86 | 5.0 | 7.0 | 0.00 | 0.00 | 0.00 | 9 | 948.1 |
| 20260508031518 | 88 | 81 | 2.0 | 6.0 | 0.00 | 0.00 | 0.00 | 9 | 947.8 |
| 20260508030016 | 90 | 84 | 0.0 | 1.0 | 0.00 | 0.00 | 0.00 | 9 | 947.7 |
| 20260508024524 | 91 | 360 | 0.0 | 0.0 | 0.00 | 0.00 | 0.00 | 9 | 947.5 |
| 20260508023020 | 93 | 359 | 0.0 | 2.0 | 0.00 | 0.00 | 0.00 | 8 | 947.4 |
| 20260508021515 | 94 | 1.0 | 6.0 | 0.00 | 0.00 | 0.00 | 8 | 947.2 | |
| 20260508020015 | 95 | 8 | 5.0 | 10.0 | 0.00 | 0.00 | 0.00 | 8 | 947.1 |
| 20260508014513 | 96 | 345 | 4.0 | 0.0 | 0.00 | 0.00 | 0.00 | 7 | 947.1 |
| 20260508013012 | 96 | 27 | 3.0 | 9.0 | 0.00 | 0.00 | 0.00 | 8 | 947.1 |
| 20260508011510 | 96 | 5.0 | 14.0 | 0.00 | 0.00 | 0.00 | 8 | 947.1 | |
| 20260508010009 | 96 | 355 | 5.0 | 12.0 | 0.00 | 0.00 | 0.00 | 8 | 947.2 |
| 20260508004508 | 96 | 352 | 6.0 | 12.0 | 0.00 | 0.00 | 0.00 | 8 | 947.3 |
| 20260508003009 | 96 | 6 | 7.0 | 15.0 | 0.00 | 0.00 | 0.00 | 8 | 947.3 |
| 20260508001506 | 96 | 328 | 7.0 | 13.0 | 0.00 | 0.00 | 0.00 | 8 | 947.4 |
| 20260508000005 | 96 | 333 | 8.0 | 14.0 | 0.00 | 0.00 | 0.00 | 8 | 947.4 |
| 20260507234505 | 96 | 9.0 | 15.0 | 0.00 | 0.00 | 0.00 | 8 | 947.5 | |
| 20260507233004 | 96 | 319 | 9.0 | 16.0 | 0.00 | 0.00 | 0.00 | 8 | 947.7 |
| 20260507231501 | 96 | 320 | 6.0 | 12.0 | 0.00 | 0.00 | 0.00 | 9 | 947.7 |
| 20260507230100 | 95 | 7 | 10.0 | 16.0 | 0.00 | 0.00 | 0.00 | 8 | 948.0 |
| 20260507224607 | 96 | 287 | 10.0 | 19.0 | 0.00 | 0.00 | 0.00 | 8 | 948.0 |
| 20260507223057 | 94 | 323 | 13.0 | 20.0 | 0.00 | 0.00 | 0.00 | 8 | 948.3 |
| 20260507221554 | 95 | 312 | 8.0 | 18.0 | 0.00 | 0.00 | 0.00 | 9 | 948.5 |
| 20260507220053 | 94 | 285 | 9.0 | 15.0 | 0.00 | 0.00 | 0.00 | 10 | 948.8 |
| 20260507214558 | 94 | 292 | 9.0 | 20.0 | 0.00 | 0.00 | 0.00 | 10 | 949.1 |
| 20260507213103 | 94 | 345 | 9.0 | 16.0 | 0.00 | 0.00 | 0.00 | 10 | 949.4 |
| 20260507211545 | 93 | 9.0 | 18.0 | 0.00 | 0.00 | 0.00 | 10 | 949.6 | |
| 20260507210050 | 93 | 7.0 | 19.0 | 0.00 | 0.00 | 0.00 | 11 | 949.9 | |
| 20260507204550 | 93 | 10.0 | 18.0 | 0.00 | 0.00 | 0.00 | 11 | 950.1 | |
| 20260507203037 | 93 | 11.0 | 17.0 | 0.00 | 0.00 | 0.00 | 11 | 950.3 | |
| 20260507201540 | 93 | 11.0 | 17.0 | 0.00 | 0.00 | 0.00 | 11 | 950.5 | |
| 20260507200038 | 93 | 8.0 | 20.0 | 0.00 | 0.00 | 0.00 | 11 | 950.7 | |
| 20260507194533 | 93 | 10.0 | 15.0 | 0.00 | 0.00 | 0.00 | 9 | 950.8 | |
| 20260507193032 | 92 | 12.0 | 17.0 | 0.00 | 0.00 | 0.00 | 9 | 951.0 | |
| 20260507191527 | 92 | 336 | 8.0 | 14.0 | 0.00 | 0.00 | 0.00 | 9 | 951.3 |
| 20260507190034 | 90 | 318 | 7.0 | 16.0 | 0.00 | 0.00 | 0.00 | 9 | 951.7 |
| 20260507184527 | 90 | 8.0 | 14.0 | 0.00 | 0.00 | 0.00 | 9 | 951.7 | |
| 20260507183021 | 89 | 320 | 9.0 | 19.0 | 0.00 | 0.00 | 0.00 | 9 | 951.9 |
| 20260507181515 | 88 | 340 | 11.0 | 18.0 | 0.00 | 0.00 | 0.00 | 9 | 952.1 |
| 20260507180013 | 88 | 326 | 12.0 | 20.0 | 0.00 | 0.00 | 0.00 | 9 | 952.2 |
| 20260507174511 | 87 | 352 | 13.0 | 21.0 | 0.00 | 0.00 | 0.00 | 10 | 952.3 |
| 20260507173009 | 86 | 356 | 14.0 | 22.0 | 0.00 | 0.00 | 0.00 | 9 | 952.4 |
| 20260507171506 | 85 | 15 | 11.0 | 23.0 | 0.00 | 0.00 | 0.00 | 11 | 952.5 |
| 20260507170004 | 84 | 354 | 13.0 | 21.0 | 0.00 | 0.00 | 0.00 | 10 | 952.6 |
| 20260507164502 | 84 | 346 | 13.0 | 18.0 | 0.00 | 0.00 | 0.00 | 11 | 952.6 |
| 20260507163102 | 83 | 336 | 12.0 | 20.0 | 0.00 | 0.00 | 0.00 | 11 | 952.9 |
| 20260507161556 | 82 | 352 | 13.0 | 17.0 | 0.00 | 0.00 | 0.00 | 12 | 952.8 |
| 20260507160059 | 81 | 342 | 12.0 | 19.0 | 0.00 | 0.00 | 0.00 | 13 | 952.9 |
| 20260507154551 | 80 | 12 | 14.0 | 21.0 | 0.00 | 0.00 | 0.00 | 13 | 953.0 |
| 20260507153052 | 80 | 10.0 | 17.0 | 0.00 | 0.00 | 0.00 | 15 | 953.1 | |
| 20260507151544 | 79 | 11.0 | 20.0 | 0.00 | 0.00 | 0.00 | 16 | 953.2 | |
| 20260507150043 | 78 | 351 | 13.0 | 21.0 | 0.00 | 0.00 | 0.00 | 16 | 953.2 |
| 20260507144545 | 78 | 9.0 | 19.0 | 0.00 | 0.00 | 0.00 | 17 | 953.2 | |
| 20260507143050 | 77 | 2 | 10.0 | 16.0 | 0.00 | 0.00 | 0.00 | 18 | 953.2 |
| 20260507141535 | 77 | 355 | 8.0 | 14.0 | 0.00 | 0.00 | 0.00 | 21 | 953.3 |
| 20260507140039 | 75 | 29 | 0.0 | 4.0 | 0.00 | 0.00 | 0.00 | 25 | 953.1 |
| 20260507134531 | 73 | 72 | 0.0 | 1.0 | 0.00 | 0.00 | 0.00 | 26 | 953.1 |
| 20260507133034 | 71 | 84 | 0.0 | 1.0 | 0.00 | 0.00 | 0.00 | 28 | 953.1 |
| 20260507131528 | 70 | 87 | 0.0 | 2.0 | 0.00 | 0.00 | 0.00 | 28 | 952.9 |